Flag for Austria Weather past 2 weeks in Wals-Siezenheim, Salzburg, Austria

Now
70 °F

Broken clouds.


Feels Like: 70 °F
Forecast: 57 / 67 °F
Wind: 10 mph from Southeast

Location: Salzburg-Flughafen

Current Time: Jul 29, 2015 at 1:59:23 PM

Latest Report: Jul 29, 2015 at 1:20 PM


Visibility: N/A

Pressure: 29.80 "Hg

Humidity: 60%

Dew point: 55 °F

Location of Wals-SiezenheimLocation

Historic Weather in Wals-Siezenheim — Graph

°F

Wals-Siezenheim temperature yesterday

Maximum temperature yesterday: 70 °F (at 1:50 PM)
Minimum temperature yesterday: 61 °F (at 1:20 AM)
Average temperature yesterday: 65 °F

Past Weeks' High & Low Weather Summary

 TemperatureHumidityPressure
High95 °F (Jul 22, 4:20 PM)100% (Jul 19, 4:20 AM)30.18 "Hg (Jul 19, 4:20 AM)
Low54 °F (Jul 29, 3:50 AM)28% (Jul 17, 4:20 PM)29.74 "Hg (Jul 24, 7:20 PM)
Average73 °F68%29.98 "Hg
* Reported Jul 14 12:20 PM — Jul 29 12:50 PM, Wals-Siezenheim, Weather by CustomWeather, © 2015

Note: Actual official high and low records may vary slightly from our data, if they occured in-between our weather recording intervals... More about our weather records

Advertising

Wals-Siezenheim weather history for previous 24 hours

 ConditionsComfort  
Time TempWeatherWind HumidityBarometerVisibility
12:50 PM
Wed, Jul 29
70 °FBroken clouds.13 mph60%29.80 "HgN/A
12:20 PM68 °FBroken clouds.13 mph64%29.83 "HgN/A
11:50 AM66 °FPartly sunny.12 mph64%29.83 "HgN/A
11:20 AM66 °FScattered clouds.13 mph64%29.86 "HgN/A
10:50 AM64 °FScattered clouds.9 mph73%29.86 "HgN/A
10:20 AM64 °FBroken clouds.10 mph73%29.89 "HgN/A
9:50 AM61 °FBroken clouds.9 mph83%29.89 "HgN/A
9:20 AM59 °FBroken clouds.9 mph88%29.92 "HgN/A
8:50 AM57 °FBroken clouds.8 mph88%29.92 "HgN/A
8:20 AM55 °FBroken clouds.8 mph94%29.92 "HgN/A
7:50 AM55 °FBroken clouds.7 mph94%29.95 "HgN/A
7:20 AM55 °FPartly sunny.8 mph94%29.92 "HgN/A
6:50 AM54 °FBroken clouds.6 mph100%29.95 "HgN/A
5:50 AM54 °FLight rain. Partly cloudy.7 mph100%29.95 "Hg5 mi
4:50 AM54 °FSprinkles. Passing clouds.5 mph94%29.95 "HgN/A
4:20 AM54 °FLight rain. Passing clouds.5 mph100%29.98 "HgN/A
3:50 AM54 °FRain. Passing clouds.7 mph100%29.98 "HgN/A
3:20 AM55 °FRain. Passing clouds.6 mph94%29.98 "Hg6 mi
2:50 AM55 °FRain. Passing clouds.12 mph94%29.95 "HgN/A
2:20 AM57 °FRain. Passing clouds.18 mph88%29.92 "HgN/A
1:50 AM61 °FLight rain. Passing clouds.8 mph83%29.92 "HgN/A
1:20 AM64 °FDrizzle. Overcast.6 mph64%29.92 "HgN/A
12:50 AM63 °FPassing clouds.1 mph83%29.89 "HgN/A
11:20 PM
Tue, Jul 28
63 °FPassing clouds.3 mph83%29.89 "HgN/A
10:50 PM63 °FSprinkles. Partly cloudy.2 mph83%29.89 "HgN/A
10:20 PM64 °FPartly cloudy.5 mph73%29.89 "HgN/A
9:50 PM64 °FPassing clouds.6 mph78%29.86 "HgN/A
9:20 PM64 °FBroken clouds.2 mph73%29.86 "HgN/A
8:50 PM66 °FBroken clouds.3 mph64%29.83 "HgN/A
8:20 PM66 °FBroken clouds.3 mph68%29.86 "HgN/A
7:50 PM68 °FBroken clouds.7 mph60%29.86 "HgN/A
7:20 PM68 °FBroken clouds.6 mph60%29.83 "HgN/A
6:50 PM70 °FBroken clouds.5 mph57%29.83 "HgN/A
6:20 PM70 °FPartly sunny.6 mph57%29.83 "HgN/A
5:50 PM70 °FPartly sunny.9 mph57%29.83 "HgN/A
5:20 PM70 °FPartly sunny.7 mph53%29.83 "HgN/A
4:50 PM70 °FPartly sunny.7 mph53%29.83 "HgN/A
4:20 PM70 °FPartly sunny.6 mph50%29.83 "HgN/A
3:50 PM70 °FPartly sunny.7 mph57%29.83 "HgN/A
3:20 PM70 °FPartly sunny.7 mph53%29.83 "HgN/A
2:50 PM70 °FPartly sunny.9 mph57%29.86 "HgN/A
2:20 PM70 °FPartly sunny.10 mph53%29.86 "HgN/A
1:50 PM70 °FPartly sunny.7 mph50%29.86 "HgN/A
1:20 PM68 °FPartly sunny.9 mph56%29.86 "HgN/A
Weather by CustomWeather, © 2015

See weather overviewHow to use our weather pages